Tracking 20942 objects as of 13-Jul-2020
HD Live streaming from Space Station
objects crossing your sky now

THORAD DELTA 1 DEB

Track THORAD DELTA 1 DEB now!
10-day predictions


NORAD ID: 8164
Int'l Code: 1974-089AE
Perigee: 1,464.5 km
Apogee: 1,657.6 km
Inclination: 101.6 °
Period: 117.2 minutes
Semi major axis: 7932 km
RCS: 0.1159 m2 (medium)
Launch date: November 15, 1974
Source: United States (US)
Launch site: AIR FORCE WESTERN TEST RANGE (AFWTR)

Note: This is SATELLITE DEBRIS
aabbcc
Your satellite tracking list
Your tracking list is empty




NASA's NSSDC Master Catalog

Two Line Element Set (TLE):
1  8164U 74089AE  20194.91186410 -.00000045 +00000-0 -35088-4 0  9992
2  8164 101.5989 075.0376 0121708 056.7745 009.7690 12.28920468048628
Source of the keplerian elements: AFSPC